Погода в Велиже

Погода в Велиже : погода сейчас, прогноз погоды и архив. Всё, что Вы хотите узнать о погоде в Велиже!

Поиск расширенной информации на нашем сайте:

Другие новости

Новости СМИ2

Главная страница сайта

Новости сайта

03.07.2017

Напоминаем, что на нашем специализированном сайте Метеоцентр.Азия вы можете получить высокодетализированные автоматические прогнозы погоды по пунктам России, СНГ и мира в авиационном формате (включающие направление и скорость ветра, видимость, явления погоды, количество и форму облачности, нижнюю и верхнюю границу облачности).


Погода в Велиже - сегодня

Время (UTC), дата Ветер
(°,м/с) 
Видим.   Явления Облачность Т
(°С)
Тd
(°С)
f(%) Тe
(°С)
Pmin
(гПа)
dP
(гПа)
Po
(мм)
O2
(г/м3)
Тmin Tmax R s Состояние
почвы
03 15.08.17 280 (З) 3200 м  дымка  ясно 
+8 +7.8 99 +9  1026.4  1.2  755  294  +7.2         
06 15.08.17 040 (СВ) 22000 м    ясно 
+17.3 +14.1 81 +25  1026.8  755  283  +7.2        мокрая 
09 15.08.17 030 (СВ) 25000 м    3/3 600 м 
[Cu med, cong]
+21.4 +13.8 62 +28  1026.8  0.3  756  280           
12 15.08.17 040 (СВ) 25000 м    3/3 900 м 
[Cu med, cong]
+20.9 +12.9 60 +26  1026.3  -0.6  755  280           
15 15.08.17 030 (СВ) 23000 м    4/4 800 м 
[Cu med, cong]
+22.1 +14.2 61 +29  1025.9  -0.3  755  279           
21 15.08.17 070 (В) 15000 м    ясно 
+12.5 +12.2 98 +18  1027  0.3  755  289           
00 16.08.17 тихо ()   12000 м    6/0 средняя 
[Ac trans]
+12.8 +12.5 98 +17  1027.4  0.3  756  288           
03 16.08.17 040 (СВ) 18000 м    8/0 средняя 
[Ac trans]
+12.2 +11.7 97 +16  1027.1  -0.3  755  289  +11.6         
06 16.08.17 100 (В) 22000 м    4/0 средняя 
[Ac trans]
+17.9 +13.2 74 +25  1026.8  0.1  755  283  +11.6        влажная 
09 16.08.17 110 (В) 25000 м    ясно 
+22.8 +13.1 54 +28  1025.5  -0.9  755  278           
12 16.08.17 140 (ЮВ) 25000 м    3/3 840 м 
[Cu med, cong]
+23.4 +13.6 54 +30  1024.9  -0.6  754  277           
15 16.08.17 100 (В) 25000 м    ясно 
+24.5 +15.2 56 +33  1023.8  -1  754  275           
18 16.08.17 080 (В) 20000 м    3/3 800 м 
[Cu med, cong]
+18.1 +15.9 87 +30  1024.1  -1  753  281    +25.4       
21 16.08.17 100 (В) 16000 м    ясно 
+16 +14.5 91 +25  1024.2  0.1  753  284           
00 17.08.17 070 (В) 13000 м    ясно 
+13.5 +13.1 97 +20  1024.1  -0.3  753  287           
03 17.08.17 140 (ЮВ) 12000 м  гроза, ливневой дождь  10/10 600 м кучево-дожд. 
[Cb cap]
+15.8 +14.8 94 +25  1023.6  -0.3  753  284  +12.7    0.8     
06 17.08.17 140 (ЮВ) 8000 м  слаб. ливневой дождь{гроза}  10/10 600 м кучево-дожд. 
[Cb cap]
+16 +15.5 97 +26  1024.4  0.8  754  283  +12.7      влажная 
09 17.08.17 120 (ЮВ) 20000 м  {ливн. осадки}  6/0 средняя, верхняя 
[Ac trans|Ci fib]
+23.6 +17.5 69 +37  1023.3  -0.5  753  275           
12 17.08.17 140 (ЮВ) 20000 м  {ливн. осадки}  8/0 средняя, верхняя 
[Ac trans|Ci fib]
+24.3 +15.8 59 +34  1022.7  -0.6  753  275           
15 17.08.17 150 (ЮВ) 23000 м    6/0 верхняя 
[Ci fib]
+25 +16 57 +35  1021.6  -1.1  752  274         
18 17.08.17 250 (З) 20000 м    3/0 верхняя 
[Ci fib]
+17.7 +16.9 95 +31  1022  752  281    +25.5  0.3     
21 17.08.17 тихо ()   20000 м    3/0 верхняя 
[Ci fib]
+14.8 +14.6 99 +23  1022.2  752  284           
00 18.08.17 190 (Ю) 20000 м    4/0 верхняя 
[Ci fib]
+17 +16.9 99 +30  1021.3  -0.7  751  281           
03 18.08.17 тихо ()   18000 м    6/0 средняя, верхняя 
[Ac trans|Ci fib]
+15.4 +15.1 98 +24  1021.2  -0.3  751  283  +14         
06 18.08.17 170 (Ю) 20000 м    ясно 
+21.6 +17.5 78 +35  1021  0.3  751  277  +14        влажная 
Время (UTC), дата Ветер
(°,м/с) 
Видим.   Явления Облачность Т
(°С)
Тd
(°С)
f(%) Тe
(°С)
Pmin
(гПа)
dP
(гПа)
Po
(мм)
O2
(г/м3)
Тmin Tmax R s Состояние
почвы

Для получения пояснительной информации подведите курсор к названию столбца.

ПОГОДА в Велиже - архив

Всё, что Вы хотите узнать о погоде в Велиже - удобно и подробно!

Выберите нужную дату (начиная с 1 января 2015* года) и нажмите кнопку "Найти".
Будут отображены архивные сводки погоды по пункту Велиж, начиная с указанной даты.


Отображать данные в формате CSV (для использования в таблицах Excel)


Внимание! Наш архив погоды предназначен исключительно для личного некоммерческого использования в познавательных целях. Если Вам необходимы официальные справки о состоянии погоды (для производственных, юридических, коммерческих и т.п. целей), обращайтесь в органы Росгидромета.

*Примечание: данная дата относится к архиву по метеостанциям СССР (Россия, СНГ, Балтия).
Архив по метеостанциям Зарубежной Европы и Азии (кроме Китая) хранится 10 дней, по другим регионам земного шара (Китай, Африка, Америка, Австралия, Океания) - 1 день.

Велиж - район местоположения метеостанции


Название, широта, долгота, высота метеостанции:
Велиж 55.6°ш. 31.2°д. 183 м над ур. моря [Российская Федерация]

Дополнительная информация

В oтличие oт бoльшинства пoгoдных сайтoв мы публикуем пoдрoбную метеoинфoрмацию в детальнoм прoфессиoнальнoм фoрмате.

Характеристики температуры и влажнoсти вoздуха измеряются на высoте 2 м в тени вдали oт зданий и деревьев.
Скoрoсть ветра измеряется на высoте 10 м (на урoвне рoста челoвека скoрoсть ветра ниже в 1.5-2 раза). Если метеoстанция нахoдится в гoрoде или в лесу, тo скoрoсть ветра занижена на 2-4 м/с пo сравнению с oткрытым местoм. Скoрoсть ветра над акватoриями крупных рек и oзёр, а также на вершинах хoлмoв на 2-5 м/с выше, чем в oбычных услoвиях.
Атмoсфернoе давление в разных тoчках местнoсти мoжет значительнo oтличаться oт давления на метеoстанции, в зависимoсти oт услoвий рельефа (при пoдъёме на 10 м давление пoнижается примернo на 1 мм рт.ст.).